KD2FGL-13 Weather Reports


Display with metric or nautical units.
time (UTC)temp
F
wind
direction
speed
MPH
gust
MPH
rain 1hr
in
rain 24hr
in
rain mn
in
humidity
%
barometer
mb
20260509201645 62 271 1.0 2.0 0.00 0.00 0.00 58 1013.3
20260509195126 62 243 0.0 1.0 0.00 0.00 0.00 58 1013.4
20260509191558 62 252 8.0 10.0 0.00 0.00 0.00 58 1013.8
20260509183527 63 73 1.0 1.0 0.00 0.00 0.00 57 1013.5
20260509175455 62 106 0.0 0.0 0.00 0.00 0.00 58 1013.1
20260509174951 63 90 0.0 1.0 0.00 0.00 0.00 58 1013.2
20260509173440 63 90 0.0 1.0 0.00 0.00 0.00 58 1013.3
20260509172936 63 100 1.0 2.0 0.00 0.00 0.00 58 1013.5
20260509170920 63 90 1.0 2.0 0.00 0.00 0.00 58 1013.4
20260509170416 63 92 1.0 3.0 0.00 0.00 0.00 59 1013.7
20260509155825 60 125 1.0 2.0 0.00 0.00 0.00 59 1014.4
20260509155321 60 247 1.0 2.0 0.00 0.00 0.00 59 1014.5
20260509153811 60 135 1.0 3.0 0.00 0.00 0.00 59 1014.5
20260509150242 60 244 4.0 5.0 0.00 0.00 0.00 59 1014.5
20260509145738 59 135 1.0 5.0 0.00 0.00 0.00 59 1014.6
20260509143723 58 90 1.0 3.0 0.00 0.00 0.00 60 1014.5
20260509124052 52 90 0.0 2.0 0.00 0.00 0.00 62 1015.0
20260509122540 52 115 0.0 2.0 0.00 0.00 0.00 63 1015.4
20260509122037 51 247 0.0 2.0 0.00 0.00 0.00 63 1015.5
20260509120020 51 90 0.0 1.0 0.00 0.00 0.00 63 1015.5
20260509115517 51 90 0.0 1.0 0.00 0.00 0.00 63 1015.6
20260509114509 50 90 0.0 0.0 0.00 0.00 0.00 62 1015.6
20260509111449 50 135 0.0 0.0 0.00 0.00 0.00 62 1015.5
20260509110438 50 135 1.0 1.0 0.00 0.00 0.00 62 1015.6
20260509105934 50 135 1.0 1.0 0.00 0.00 0.00 62 1015.5
20260509104926 50 225 0.0 0.0 0.00 0.00 0.00 62 1015.5
20260509104422 49 90 0.0 0.0 0.00 0.00 0.00 62 1015.4
20260509095848 50 135 0.0 0.0 0.00 0.00 0.00 62 1015.6
20260509095342 50 135 0.0 1.0 0.00 0.00 0.00 62 1015.6
20260509094838 50 90 0.0 0.0 0.00 0.00 0.00 61 1015.6
20260509093326 50 135 0.0 0.0 0.00 0.00 0.00 61 1015.3
20260509092823 50 90 0.0 1.0 0.00 0.00 0.00 61 1015.3
20260509092319 50 90 1.0 1.0 0.00 0.00 0.00 61 1015.3
20260509091817 50 90 1.0 1.0 0.00 0.00 0.00 61 1015.4
20260509083744 50 90 1.0 2.0 0.00 0.00 0.00 61 1015.4
20260509083240 51 292 2.0 2.0 0.00 0.00 0.00 61 1015.4
20260509082735 51 90 0.0 0.0 0.00 0.00 0.00 60 1015.2
20260509081224 51 90 0.0 0.0 0.00 0.00 0.00 60 1015.2
20260509080720 51 90 0.0 0.0 0.00 0.00 0.00 60 1015.2
20260509080217 51 135 0.0 1.0 0.00 0.00 0.00 60 1015.2
20260509072144 51 90 0.0 0.0 0.00 0.00 0.00 58 1015.3
20260509071642 51 90 0.0 0.0 0.00 0.00 0.00 58 1015.2
20260509070633 51 135 0.0 1.0 0.00 0.00 0.00 58 1015.1
20260509063612 51 90 0.0 1.0 0.00 0.00 0.00 57 1015.1
20260509062058 51 90 0.0 0.0 0.00 0.00 0.00 57 1015.2
20260509061554 51 135 0.0 0.0 0.00 0.00 0.00 57 1015.3
20260509055034 51 90 0.0 0.0 0.00 0.00 0.00 57 1015.6
20260509051002 51 90 0.0 0.0 0.00 0.00 0.00 56 1015.7
20260509045955 52 292 1.0 1.0 0.00 0.00 0.00 56 1015.7
20260509044444 52 247 1.0 1.0 0.00 0.00 0.00 56 1015.7
20260509043435 52 135 0.0 0.0 0.00 0.00 0.00 56 1015.8
20260509040413 52 135 0.0 1.0 0.00 0.00 0.00 55 1015.7
20260509034356 52 270 0.0 1.0 0.00 0.00 0.00 55 1015.8
20260509032340 52 247 1.0 1.0 0.00 0.00 0.00 54 1015.6
20260509031837 52 90 0.0 0.0 0.00 0.00 0.00 54 1015.5
20260509031332 52 135 0.0 2.0 0.00 0.00 0.00 54 1015.5
20260509023301 52 90 0.0 0.0 0.00 0.00 0.00 53 1015.3
20260509002623 57 292 0.0 1.0 0.00 0.00 0.00 46 1013.9
20260509002119 58 135 0.0 0.0 0.00 0.00 0.00 46 1013.9
20260509000607 59 247 0.0 1.0 0.00 0.00 0.00 44 1013.7
20260508235559 59 247 1.0 1.0 0.00 0.00 0.00 43 1013.7
20260508235056 59 153 1.0 1.0 0.00 0.00 0.00 43 1013.6
20260508221945 62 299 2.0 5.0 0.00 0.00 0.00 41 1012.8
20260508215930 62 301 2.0 6.0 0.00 0.00 0.00 41 1012.8
20260508213913 62 90 0.0 5.0 0.00 0.00 0.00 42 1012.8
20260508212402 61 295 2.0 4.0 0.00 0.00 0.00 42 1012.9